GFSMW_sfc_rhum_069.txt.gz
RH
29 34 43 50 71 90 93 92 93 95 93 91 94 95 96 94 95 88 77 59 52 54 56 52 63 66 60 59 59 54 58 50 45 40 42 44 44 43 37 35 34 36 38
31 38 44 52 66 85 88 86 84 85 91 74 73 76 81 79 73 77 82 53 49 47 48 53 56 60 59 63 62 64 65 56 58 52 56 61 53 47 46 42 40 48 36
33 38 43 49 61 76 76 85 81 77 78 74 70 74 78 81 77 76 82 71 58 54 54 54 62 64 56 60 67 66 64 72 62 63 69 71 61 63 52 55 45 50 46
31 34 41 45 55 71 79 77 78 75 71 71 65 72 65 78 73 70 72 69 70 62 57 59 67 69 56 60 64 60 64 76 81 65 62 62 58 62 72 51 55 51 48
29 34 39 39 43 62 76 77 81 77 73 70 67 73 76 57 68 64 69 74 70 69 59 74 79 77 70 71 73 74 76 80 79 74 69 59 54 56 58 55 56 55 46
26 31 34 36 37 50 67 75 82 84 79 73 75 73 71 62 69 77 63 74 76 68 67 76 81 77 79 78 78 80 79 79 76 65 63 58 57 56 65 66 68 76 75
26 31 33 36 36 45 56 63 71 78 84 84 77 68 70 70 67 70 69 70 81 78 66 77 75 71 68 68 70 84 74 70 73 70 69 62 65 63 65 69 72 83 87
27 30 31 35 35 42 49 54 58 64 76 85 80 70 65 61 58 57 59 69 72 73 66 68 69 62 64 64 64 67 67 68 80 75 72 66 62 63 65 72 89 89 90
24 29 30 34 36 39 47 53 51 49 62 75 82 77 68 68 64 64 66 64 62 61 66 65 63 61 59 58 58 54 61 69 76 77 75 69 67 70 73 74 81 87 93
21 27 29 34 35 37 42 50 50 45 47 63 73 73 67 65 60 60 64 64 65 62 61 64 63 62 62 60 58 53 57 63 66 67 70 71 68 70 75 80 84 83 91
22 25 28 31 34 36 39 45 47 44 44 49 55 65 64 64 62 59 57 57 61 62 60 62 61 59 58 58 57 56 56 59 61 64 66 69 74 84 90 93 94 96 98
22 24 26 30 35 37 39 41 45 45 44 45 49 56 62 60 61 60 57 56 55 56 55 53 54 52 51 53 54 56 52 56 59 60 64 74 80 84 89 98 98 95 94
16 20 26 29 33 36 39 39 42 42 41 42 46 53 57 59 60 60 59 56 55 53 52 49 51 50 52 52 53 54 55 57 58 59 62 75 86 97 97 97 96 96 96
16 16 20 25 29 33 37 38 41 43 41 40 42 49 56 56 57 57 58 59 56 56 54 52 51 53 50 49 50 50 55 57 57 61 65 77 87 90 92 96 95 96 98
14 15 16 20 24 30 34 36 37 41 43 42 41 46 52 53 54 57 58 58 59 56 54 56 56 55 54 50 55 52 55 57 60 67 72 81 80 87 89 93 96 97 98
16 17 17 16 16 21 28 31 36 40 42 45 45 44 47 49 54 57 59 60 60 58 58 58 58 61 53 68 78 71 60 61 63 72 77 77 93 96 100 100 99 95 97
23 22 20 17 18 18 19 27 30 34 41 44 44 43 45 47 52 54 55 57 62 63 64 62 60 61 61 80 83 85 65 68 76 86 82 91 96 100 98 100 99 97 96
34 30 25 22 20 22 19 21 21 30 36 39 42 42 45 46 47 51 53 57 60 65 66 65 64 63 59 82 90 99 71 69 71 74 85 96 99 99 98 96 90 91 92
34 37 36 34 32 31 32 26 21 21 28 37 41 40 42 44 47 50 55 57 58 62 64 62 65 68 64 99 100 99 94 98 99 99 99 98 99 98 90 90 95 97 98
33 42 43 46 53 53 50 46 35 27 26 28 35 36 40 42 46 51 56 58 60 62 67 86 96 100 98 100 100 100 99 99 98 98 98 97 97 97 94 95 94 95 97
33 41 46 54 59 59 57 54 50 58 56 42 37 38 39 44 45 49 53 58 74 92 97 98 98 97 98 98 98 97 98 98 98 97 97 98 98 97 96 94 93 94 94
36 40 47 56 63 65 64 67 78 78 76 74 77 81 81 79 78 79 88 90 95 97 98 98 98 98 98 97 96 95 94 92 93 96 96 97 94 94 96 96 97 95 92
39 42 46 56 64 70 76 84 87 86 89 89 90 91 90 89 90 95 97 97 98 98 98 97 97 96 96 96 95 93 94 93 93 92 94 93 92 94 95 95 95 95 89
46 46 50 57 66 70 75 81 84 83 86 90 91 90 93 93 92 91 94 96 98 98 98 97 96 96 95 96 94 94 93 92 92 94 95 96 96 96 95 93 93 87 84
53 55 60 63 69 73 78 79 84 82 86 89 90 92 92 92 93 95 96 97 97 94 95 95 92 95 96 97 94 91 93 94 95 96 94 94 92 91 91 86 80 73 62
60 62 68 68 65 68 76 81 85 85 87 92 93 96 93 92 88 88 92 94 94 93 92 90 90 95 94 95 95 96 96 96 98 93 92 94 94 91 81 80 71 70 71

GFSMW_sfc_rhum_072.txt.gz
RH
29 34 45 55 69 84 93 90 92 96 95 96 98 97 97 96 94 92 84 85 81 66 72 77 78 71 70 69 70 71 68 68 67 64 67 64 60 61 58 58 57 53 54
30 38 47 56 72 78 89 91 87 93 89 88 88 86 90 88 84 84 85 79 75 68 69 72 73 75 74 74 74 73 80 76 73 70 72 78 74 68 65 63 56 60 54
32 39 47 56 72 76 86 91 87 87 84 81 81 83 83 93 89 79 82 82 67 64 65 70 72 76 75 75 78 80 78 86 80 76 85 87 88 85 72 66 69 65 70
31 36 44 54 63 72 75 82 84 83 82 79 82 85 87 90 77 68 68 84 76 65 60 64 69 72 73 80 86 84 79 87 86 86 80 87 85 86 96 89 71 74 66
32 35 42 47 54 67 71 81 79 80 78 77 75 80 81 77 72 63 66 84 83 74 67 75 78 76 76 85 88 84 85 84 90 84 91 84 86 86 86 88 86 76 73
32 32 39 43 49 65 70 80 81 80 77 78 74 76 77 76 75 71 72 82 78 81 77 78 81 85 86 85 85 84 84 91 89 83 86 85 80 85 91 94 89 90 84
29 33 39 40 46 66 76 81 82 81 81 80 78 74 76 74 78 72 69 77 78 78 79 74 82 76 79 86 89 91 88 88 90 89 85 78 87 82 87 88 88 91 95
29 33 37 40 42 61 69 75 77 80 79 83 81 76 73 71 70 72 66 65 72 75 74 76 75 74 77 79 82 84 87 87 89 88 83 73 80 84 79 81 93 94 96
26 31 34 40 42 50 63 70 75 76 82 85 82 79 75 72 71 72 72 66 67 68 74 75 77 72 69 71 75 78 78 74 80 82 82 77 80 89 87 88 88 88 94
22 30 32 40 40 45 55 64 61 63 74 81 83 79 74 73 69 66 69 73 71 70 73 73 74 72 68 68 68 68 68 73 75 73 79 76 77 86 88 88 95 94 92
26 30 32 36 39 43 49 57 58 55 63 74 80 80 78 76 73 70 68 66 74 71 68 72 72 69 66 65 67 66 66 68 66 71 75 80 82 86 89 91 94 94 93
26 27 31 36 38 42 44 53 57 57 55 64 71 77 78 76 76 74 71 72 70 70 68 65 67 65 65 66 68 68 62 65 64 64 73 76 76 83 87 93 96 96 93
21 26 30 34 38 41 44 45 53 54 52 51 60 72 76 77 76 74 71 69 68 67 67 65 64 65 65 65 65 65 64 64 64 65 68 68 73 80 87 90 92 93 95
19 20 26 30 34 40 42 44 49 52 50 48 51 60 69 72 72 70 69 68 66 64 64 66 65 65 64 62 62 61 64 64 62 64 68 68 70 73 86 91 93 94 96
21 20 22 26 29 36 41 42 45 49 50 49 47 55 60 63 67 69 69 68 67 63 61 64 64 64 61 58 62 59 62 63 63 64 64 66 69 77 87 92 93 94 96
30 26 24 22 22 28 34 38 43 47 48 51 50 49 53 58 64 66 68 69 68 67 66 66 64 66 56 66 75 67 61 61 62 66 66 68 87 94 97 97 96 91 93
36 37 36 34 32 28 32 33 39 43 47 50 50 50 50 53 61 62 64 66 70 71 72 70 68 68 66 79 81 82 65 68 71 73 73 74 84 95 89 100 100 99 98
39 44 44 45 46 48 51 49 40 34 43 46 48 50 52 52 53 59 62 66 68 72 72 72 71 70 66 85 85 87 78 72 72 74 78 90 93 98 100 99 97 97 97
40 46 49 54 57 60 58 55 49 41 33 45 45 46 51 52 54 57 61 64 68 71 72 71 75 76 74 89 89 92 87 82 97 99 99 99 99 100 97 96 98 98 98
41 45 54 60 67 68 66 67 74 74 73 78 72 67 50 51 54 58 61 64 65 69 70 79 97 99 96 100 100 99 99 99 99 98 98 98 98 97 96 96 94 96 98
42 44 56 67 71 71 72 81 82 88 84 80 78 80 80 83 78 65 66 69 73 96 98 98 98 98 98 99 99 99 99 98 98 97 98 99 98 96 94 91 91 94 95
44 45 55 63 67 69 75 82 89 82 81 82 83 84 84 82 84 93 95 95 98 98 99 99 98 98 99 98 97 97 96 94 94 97 97 98 96 95 93 92 93 93 95
49 50 54 61 67 70 75 85 86 82 82 84 86 85 84 84 86 94 96 97 98 99 99 98 97 98 97 98 96 96 96 97 96 96 95 95 93 92 93 94 96 97 97
56 57 62 66 70 71 74 80 81 79 81 86 88 86 89 87 87 88 91 96 98 98 97 96 95 96 95 97 96 94 94 93 93 93 94 94 94 95 97 96 95 96 96
61 63 69 71 73 72 76 78 80 81 83 86 87 88 88 87 87 90 95 95 96 95 94 96 95 95 97 98 96 95 95 95 96 96 97 96 95 96 96 96 95 96 96
68 69 72 74 75 76 81 83 82 80 85 90 91 94 92 89 85 84 89 96 97 94 95 95 92 97 97 97 97 96 96 96 99 97 97 98 97 96 96 96 96 95 89

GFSMW_sfc_rhum_075.txt.gz
RH
45 53 74 80 95 95 94 94 98 97 96 96 98 98 98 98 96 94 87 85 82 78 77 81 90 94 88 86 69 70 69 73 66 67 72 67 64 65 66 73 72 72 70
50 58 85 85 95 94 92 93 94 95 93 91 87 89 94 94 90 87 85 79 76 76 74 76 82 91 94 92 87 77 85 80 74 67 75 74 70 73 69 70 64 68 66
55 60 81 89 94 96 93 91 87 93 89 88 87 89 87 93 94 90 84 76 74 75 71 72 78 83 82 84 83 80 75 83 80 60 86 94 85 86 76 75 72 66 72
51 57 71 90 91 89 88 88 87 88 85 87 87 92 94 95 86 86 78 75 80 79 74 75 81 77 72 76 88 85 81 88 89 90 86 89 90 93 92 92 78 77 70
50 58 64 82 83 83 89 91 88 86 83 86 84 88 90 85 81 77 78 82 80 77 72 77 80 86 89 91 91 91 89 91 93 85 89 87 90 92 90 86 90 83 82
47 52 60 69 81 85 79 85 87 85 84 86 84 84 84 84 82 79 77 82 80 85 76 84 84 86 91 92 89 93 90 94 91 87 90 88 86 87 92 93 93 92 91
45 53 62 69 80 83 78 84 82 90 83 86 84 80 81 81 76 70 70 76 84 94 90 89 90 90 83 92 88 88 90 95 94 90 86 85 86 86 88 93 93 93 93
43 51 55 63 79 82 79 77 83 84 82 83 82 78 75 79 78 72 66 68 77 80 82 80 86 86 90 85 91 94 91 92 96 93 87 82 84 85 83 84 91 94 95
43 49 51 56 76 84 85 87 82 72 83 82 83 80 80 76 78 72 67 67 72 74 80 84 81 84 81 85 88 86 87 84 89 87 86 85 84 89 85 85 85 81 85
41 47 48 52 68 76 84 85 86 84 83 85 83 79 78 76 73 75 71 67 64 71 77 81 81 80 78 78 80 81 81 85 84 81 85 84 78 90 90 87 87 89 84
41 45 46 48 54 70 77 81 86 84 87 88 86 81 79 79 74 74 78 74 68 67 73 76 80 79 77 72 73 72 76 78 76 77 83 83 82 85 88 89 86 89 91
40 42 44 47 52 57 69 74 75 81 82 85 86 86 81 78 79 74 72 77 78 71 74 76 74 78 78 74 72 70 63 73 73 74 79 79 80 87 85 90 88 90 89
40 45 47 47 50 52 60 65 68 67 73 80 84 87 85 79 75 77 73 72 72 79 76 74 77 74 74 73 72 71 71 69 73 75 79 78 83 86 86 90 90 89 90
29 41 51 48 48 51 56 60 65 65 64 76 78 85 86 84 77 71 77 75 77 73 77 76 75 76 74 70 68 67 70 70 72 74 74 72 71 78 81 86 88 88 93
43 43 42 42 46 59 56 52 59 63 61 61 71 79 82 81 81 80 81 79 78 76 74 75 75 73 70 68 71 68 71 72 73 72 69 70 72 79 76 78 84 89 93
50 50 51 57 60 60 71 68 61 60 60 60 59 62 73 79 82 81 81 80 79 76 75 75 75 76 70 76 83 76 70 68 71 74 72 70 81 82 85 88 88 86 93
52 59 63 63 65 66 65 68 69 72 76 62 58 58 63 71 76 78 78 78 80 79 78 76 75 74 74 85 85 87 71 74 74 74 75 77 78 90 80 95 100 99 98
59 67 71 74 74 74 72 71 73 74 79 81 78 74 73 64 67 72 74 77 78 81 79 79 77 75 72 87 88 88 77 71 71 73 75 80 80 88 93 99 99 98 98
68 73 72 73 74 76 75 77 79 79 81 83 86 87 84 85 74 74 73 72 75 77 78 77 82 84 79 92 89 91 83 81 78 97 98 97 97 99 100 98 98 98 99
71 72 69 70 72 73 73 78 81 82 83 82 81 81 83 86 91 96 94 85 82 78 80 86 96 100 93 100 100 99 94 97 100 99 99 99 99 99 97 98 96 98 98
59 62 68 74 72 70 72 80 82 85 79 77 79 80 80 82 87 92 93 96 98 97 99 99 98 98 98 99 99 100 99 98 99 99 99 99 98 97 96 93 93 95 97
62 62 69 71 69 70 74 81 85 80 78 78 78 79 80 79 82 89 93 94 96 98 98 98 98 98 98 98 97 96 96 95 96 98 98 98 96 95 95 96 96 95 96
66 64 67 69 70 72 76 84 84 81 80 82 84 84 79 80 82 88 90 93 93 96 96 95 96 97 96 95 95 94 94 93 95 94 97 97 94 93 95 96 97 97 97
68 66 68 72 76 74 78 82 81 80 81 87 88 85 86 87 85 84 87 92 94 94 93 93 95 95 95 96 96 94 94 93 93 95 95 95 96 96 96 96 95 95 95
67 69 73 75 77 76 80 81 81 81 82 85 87 89 86 86 89 93 93 94 95 88 92 95 95 94 96 98 96 94 95 95 97 96 96 96 96 94 95 96 95 95 94
71 74 75 79 79 78 84 86 83 83 86 88 89 92 90 87 84 84 89 94 94 93 93 92 89 96 97 99 99 99 97 98 97 95 96 97 96 95 95 95 95 95 95

GFSMW_sfc_rhum_078.txt.gz
RH
54 74 83 97 98 98 97 98 99 98 98 98 98 99 98 98 97 93 86 83 80 78 73 68 89 81 80 79 74 74 67 82 75 75 77 75 82 85 84 87 83 85 85
64 82 94 96 94 93 97 97 97 97 91 92 93 95 96 97 95 94 87 81 79 74 76 70 84 86 87 91 86 75 86 81 71 69 77 78 73 73 73 82 85 89 79
66 88 92 96 93 96 98 92 92 95 97 92 89 93 96 98 99 97 95 90 84 77 76 81 80 87 81 87 90 84 68 84 81 63 84 91 76 82 80 76 79 84 87
61 81 88 98 94 96 96 95 89 92 92 92 88 91 94 96 95 93 89 84 82 80 80 80 84 88 81 88 90 87 82 88 79 86 86 85 89 89 94 93 79 75 72
60 81 88 94 96 97 96 88 88 90 88 88 93 86 90 85 89 88 90 87 86 87 81 85 84 83 83 88 90 92 90 90 91 69 94 91 94 91 90 90 91 92 84
58 72 81 87 95 97 96 89 88 89 89 87 89 90 85 86 89 88 88 86 83 85 85 85 83 84 83 82 86 87 89 91 91 90 87 86 89 92 93 93 91 92 90
60 73 90 90 92 98 96 88 89 89 87 91 88 89 93 87 85 84 84 84 82 91 83 84 85 85 84 82 81 85 92 93 93 90 91 88 85 87 90 91 92 94 92
60 70 80 84 91 94 95 91 89 88 87 90 89 84 82 84 84 80 82 80 78 80 81 79 81 80 86 88 89 92 94 93 93 92 92 90 88 90 85 86 93 95 96
58 65 73 79 87 88 91 89 82 81 82 89 87 85 82 81 85 79 78 78 77 75 89 83 83 84 82 81 92 92 95 94 93 90 90 91 89 90 85 86 89 86 90
56 61 69 78 81 83 84 80 75 75 81 84 86 84 81 79 80 80 75 72 72 75 82 87 88 89 86 85 85 89 90 89 89 85 88 86 79 87 88 85 85 85 80
56 58 62 74 79 83 86 86 82 77 78 81 83 82 82 81 77 80 77 71 70 78 81 80 85 82 84 84 85 82 82 85 84 85 88 87 82 82 84 83 82 86 88
52 55 57 71 80 86 90 91 89 84 85 87 88 83 81 82 81 79 78 75 72 70 75 78 79 80 79 78 79 80 78 85 84 84 86 86 82 86 83 84 85 86 84
57 58 57 62 76 81 85 86 89 86 85 86 89 91 89 83 81 78 79 78 75 74 71 74 78 77 80 80 80 78 77 76 78 77 81 80 83 84 85 85 85 87 87
54 61 66 66 66 70 82 84 86 86 85 87 88 90 90 86 84 79 79 78 78 78 78 75 74 76 73 78 78 78 79 77 73 74 75 75 77 81 81 84 86 85 88
70 71 75 78 83 82 79 71 74 80 78 85 86 87 86 84 81 80 79 78 77 75 75 82 81 79 78 75 78 77 78 78 76 74 74 77 77 80 79 77 82 86 88
72 74 74 76 79 81 82 82 84 86 78 80 88 87 88 87 87 84 80 78 81 79 78 76 80 86 80 86 90 84 79 76 76 78 75 74 87 86 87 88 83 77 86
74 76 80 79 80 82 79 82 82 81 87 86 81 82 86 88 89 88 86 85 85 86 86 84 82 82 80 91 91 91 78 79 80 79 79 79 77 86 80 89 91 94 98
76 77 80 78 77 76 78 79 78 80 83 84 85 85 84 87 89 87 89 90 88 90 89 87 85 83 79 92 93 92 82 77 76 76 77 79 78 79 84 84 95 98 99
72 73 73 75 74 74 73 75 75 74 77 80 81 83 84 86 90 95 96 92 88 89 89 87 88 86 83 99 97 95 85 82 82 78 78 84 83 85 96 93 100 99 99
69 73 74 74 76 73 72 77 79 79 80 78 77 77 79 83 90 94 96 96 97 97 93 97 96 96 96 96 97 99 95 91 91 99 99 99 100 100 100 95 99 98 98
66 67 72 75 73 72 74 80 82 84 78 76 75 75 76 78 82 87 89 93 97 97 98 97 96 94 95 95 95 96 99 99 100 99 99 99 98 97 96 95 96 97 96
68 66 72 73 71 72 76 82 86 78 76 80 80 81 82 77 78 86 88 90 94 96 97 96 96 94 92 93 93 94 96 94 95 97 98 98 95 94 94 94 96 95 94
69 65 69 72 73 73 78 86 85 79 80 84 86 84 84 85 84 91 93 91 91 94 95 94 95 96 94 94 93 91 92 93 94 95 96 95 94 94 94 94 95 96 96
72 67 70 74 79 78 80 84 82 77 80 85 85 84 86 87 88 86 88 93 94 93 92 92 95 95 95 96 96 96 92 92 94 93 94 95 95 95 96 95 95 96 96
72 73 77 79 82 82 85 82 82 79 80 83 84 86 85 85 85 90 94 92 96 95 93 95 94 94 96 98 97 93 95 96 96 94 93 94 94 95 95 95 95 94 94
76 78 80 81 84 83 86 87 81 82 83 85 87 90 87 85 83 81 88 91 93 94 93 92 90 96 94 92 94 94 94 92 86 89 93 95 95 95 95 95 95 94 94

GFSMW_sfc_rhum_081.txt.gz
RH
50 80 94 97 99 98 99 96 91 96 97 98 98 99 99 98 98 97 95 93 87 74 68 74 80 76 69 75 72 77 74 84 77 82 87 87 93 94 93 92 92 89 88
90 93 94 90 95 97 98 98 92 94 89 96 94 96 98 99 97 98 96 94 88 69 66 72 67 72 74 82 83 78 84 87 80 79 83 90 84 86 89 92 86 86 88
83 95 90 91 88 92 94 91 98 95 94 92 93 97 98 99 99 98 98 96 91 83 65 72 69 74 72 80 78 76 70 84 85 69 86 92 86 88 84 83 89 90 95
66 87 91 89 90 89 90 86 97 93 91 91 94 95 95 97 98 97 95 94 88 87 81 76 86 76 75 81 86 78 68 85 78 87 86 80 86 85 90 91 79 86 89
65 85 94 85 84 88 91 88 96 95 88 89 90 91 95 91 98 99 98 96 96 94 90 91 90 89 83 87 87 90 89 89 88 80 95 94 95 91 91 92 92 90 80
60 77 89 84 87 88 90 98 97 88 94 91 87 86 90 93 96 98 98 97 98 98 97 94 91 89 89 88 88 87 91 90 86 75 91 92 92 94 93 91 92 92 90
66 87 97 94 92 92 92 97 96 95 93 94 95 82 79 86 95 93 94 96 96 96 96 94 91 88 87 88 88 91 93 93 93 82 76 86 87 88 89 89 89 92 93
64 86 93 94 93 88 90 95 94 92 92 92 92 92 80 80 84 91 87 87 86 84 82 85 85 85 84 84 89 94 96 94 94 91 88 79 87 89 86 87 89 93 96
66 81 86 88 96 90 88 93 92 90 88 92 86 92 92 89 88 84 83 84 82 82 80 85 86 87 87 83 86 88 90 93 90 88 90 86 88 92 90 91 90 90 91
67 78 81 88 90 93 89 93 92 91 89 88 88 92 92 91 86 91 89 88 89 88 95 89 89 86 85 86 88 87 85 87 86 89 94 90 88 91 94 91 92 94 91
65 73 76 84 88 91 94 95 93 89 87 86 86 86 86 87 83 86 89 86 86 87 93 91 88 90 86 82 85 83 84 87 81 89 92 88 83 86 88 89 84 86 87
61 69 77 84 90 91 92 91 87 85 84 85 87 87 86 84 85 87 88 86 82 86 88 87 88 86 90 89 85 85 82 92 89 88 88 86 82 86 82 84 82 83 82
69 74 85 88 91 94 92 90 92 90 89 89 92 94 90 87 86 83 82 81 80 80 84 86 85 89 90 89 91 86 84 85 85 83 86 84 85 88 85 88 87 87 85
85 89 83 86 92 93 93 90 91 92 91 93 94 96 96 94 91 84 82 84 79 76 76 78 80 80 82 86 84 84 86 85 85 85 84 84 87 87 86 88 86 84 85
86 88 91 93 92 91 92 88 92 93 92 94 93 94 95 94 94 93 91 87 84 81 77 76 74 76 77 75 81 80 82 85 85 83 82 80 80 84 81 77 81 85 88
86 86 87 87 88 88 89 87 87 88 94 94 95 94 94 93 93 92 92 93 90 87 86 82 82 81 75 86 89 84 80 82 84 84 81 79 87 85 89 90 85 75 85
84 86 85 82 83 82 82 85 84 82 85 85 84 83 90 94 94 92 91 91 92 91 91 87 84 84 83 94 94 93 80 81 85 86 85 84 80 88 82 91 94 93 91
83 83 80 78 76 75 74 74 73 76 78 80 81 81 83 85 87 90 92 92 90 91 91 90 89 87 83 98 98 96 88 84 84 84 84 84 82 80 83 86 87 90 88
79 78 75 75 75 75 74 73 73 73 75 77 78 79 80 84 88 92 93 92 96 96 94 91 91 93 97 96 97 98 94 90 88 84 84 91 89 90 97 90 91 99 100
73 75 73 73 75 75 74 76 79 81 81 78 76 75 76 80 84 88 91 93 96 95 92 93 93 95 94 96 95 96 98 98 96 98 97 98 97 97 98 100 98 100 99
72 70 72 76 76 73 75 82 81 83 80 78 80 82 79 79 82 85 85 89 92 93 95 95 94 93 96 95 94 96 99 99 98 98 97 98 95 94 94 94 96 97 96
68 67 72 76 74 75 77 85 86 77 78 81 83 84 83 81 83 87 87 87 90 93 94 94 94 94 94 95 94 94 94 92 93 96 97 97 97 94 93 93 96 96 96
71 67 70 76 78 78 80 88 86 78 78 81 85 84 84 84 84 90 91 91 89 92 92 92 94 94 93 93 92 90 91 92 95 95 95 94 94 94 94 93 93 94 96
76 72 74 81 86 83 82 85 82 76 79 82 83 82 86 87 86 84 88 93 93 92 92 91 94 94 94 96 95 95 94 92 93 92 94 95 93 92 92 92 94 95 95
76 77 80 83 86 82 85 84 83 76 81 84 84 84 82 84 86 91 91 90 95 93 93 95 95 94 96 98 90 91 94 95 92 89 88 90 90 90 92 92 93 93 92
80 80 82 82 82 82 86 88 84 84 83 84 87 91 90 86 83 84 90 87 87 85 86 86 88 95 92 89 88 86 84 80 80 87 92 94 94 94 94 94 94 94 92